This is the latest recevied weather packets stored in our database for station/object XE2RCS-1. If no packets are shown the sender has not sent any weather packets the latest 1 day(s).
| Time | Temp. | Humidity | Pressure | Rain* | Wind** | Luminosity | Snow |
|---|---|---|---|---|---|---|---|
| 1778073564 | 23.33° C | 19% | 1013 hPa | 0 mm | - | - | - |
| 1778071762 | 21.67° C | 20% | 1013 hPa | 0 mm | - | - | - |
| 1778070561 | 22.22° C | 18% | 1012 hPa | 0 mm | - | - | - |
| 1778069960 | 22.22° C | 19% | 1012 hPa | 0 mm | - | - | - |
| 1778068759 | 22.22° C | 22% | 1012 hPa | 0 mm | - | - | - |
| 1778068158 | 22.22° C | 22% | 1012 hPa | 0 mm | - | - | - |
| 1778066957 | 23.89° C | 14% | 1011 hPa | 0 mm | - | - | - |
| 1778065756 | 23.33° C | 22% | 1011 hPa | 0 mm | - | - | - |
| 1778065155 | 24.44° C | 20% | 1011 hPa | 0 mm | - | - | - |
| 1778063954 | 24.44° C | 20% | 1011 hPa | 0 mm | - | - | - |
| 1778063353 | 25° C | 13% | 1010 hPa | 0 mm | - | - | - |
| 1778062753 | 25° C | 14% | 1010 hPa | 0 mm | - | - | - |
| 1778060951 | 25° C | 13% | 1010 hPa | 0 mm | - | - | - |
| 1778058548 | 24.44° C | 14% | 1010 hPa | 0 mm | - | - | - |
| 1778057947 | 24.44° C | 14% | 1010 hPa | 0 mm | - | - | - |
| 1778053743 | 23.33° C | 19% | 1009 hPa | 0 mm | - | - | - |
| 1778053142 | 23.33° C | 21% | 1009 hPa | 0 mm | - | - | - |
| 1778051941 | 23.89° C | 21% | 1009 hPa | 0 mm | - | - | - |
| 1778050740 | 23.89° C | 21% | 1009 hPa | 0 mm | - | - | - |
| 1778050139 | 23.89° C | 21% | 1009 hPa | 0 mm | - | - | - |
| 1778048938 | 23.33° C | 25% | 1009 hPa | 0 mm | - | - | - |
| 1778047136 | 23.33° C | 30% | 1009 hPa | 0 mm | - | - | - |
| 1778045935 | 23.89° C | 30% | 1009 hPa | 0 mm | - | - | - |
| 1778045334 | 23.89° C | 28% | 1008 hPa | 0 mm | - | - | - |
| 1778044733 | 23.89° C | 29% | 1008 hPa | 0 mm | - | - | - |
* Rain latest hour (hover to see other rain measurements)
** Current wind speed in m/s (hover to see current wind gust speed)